TIME,�g�[�{�C���[-���� [L],�t���O,�����{�C���[-���� [L],�t���O,�g�[�{�C���[-���� [MJ/h],�t���O,�����{�C���[-���� [MJ/h],�t���O
2005/3/1 0:00,0.106904,0,0,0,15.6935072,0,0,0
2005/3/1 0:15,0.008855,0,0,0,1.299914,0,0,0
2005/3/1 0:30,0,0,0,0,0,0,0,0
2005/3/1 0:45,0,0,0,0,0,0,0,0
2005/3/1 1:00,0,0,0,0,0,0,0,0
2005/3/1 1:15,0,0,0,0,0,0,0,0
2005/3/1 1:30,0,0,0,0,0,0,0,0
2005/3/1 1:45,0,0,0,0,0,0,0,0
2005/3/1 2:00,0,0,0,0,0,0,0,0
2005/3/1 2:15,0,0,0,0,0,0,0,0
2005/3/1 2:30,0,0,0,0,0,0,0,0
2005/3/1 2:45,0,0,0,0,0,0,0,0
2005/3/1 3:00,0,0,0,0,0,0,0,0
2005/3/1 3:15,0,0,0,0,0,0,0,0
2005/3/1 3:30,0,0,0,0,0,0,0,0
2005/3/1 3:45,0,0,0,0,0,0,0,0
2005/3/1 4:00,0,0,0,0,0,0,0,0
2005/3/1 4:15,0,0,0,0,0,0,0,0
2005/3/1 4:30,0,0,0,0,0,0,0,0
2005/3/1 4:45,0,0,0,0,0,0,0,0
2005/3/1 5:00,0,0,0,0,0,0,0,0
2005/3/1 5:15,0,0,0,0,0,0,0,0
2005/3/1 5:30,0.017871,0,0.433895,0,2.6234628,0,63.695786,0
2005/3/1 5:45,0.136528,0,0.419727,0,20.0423104,0,61.6159236,0
2005/3/1 6:00,0.110929,0,0,0,16.2843772,0,0,0
2005/3/1 6:15,0.111895,0,0,0,16.426186,0,0,0
2005/3/1 6:30,0.104328,0,0,0,15.3153504,0,0,0
2005/3/1 6:45,0.109158,0,0.146349,0,16.0243944,0,21.4840332,0
2005/3/1 7:00,0.109158,0,0.146188,0,16.0243944,0,21.4603984,0
2005/3/1 7:15,0.109158,0,0,0,16.0243944,0,0,0
2005/3/1 7:30,0.110929,0,0.198513,0,16.2843772,0,29.1417084,0
2005/3/1 7:45,0.106904,0,0,0,15.6935072,0,0,0
2005/3/1 8:00,0.065044,0,0,0,9.5484592,0,0,0
2005/3/1 8:15,0,0,0,0,0,0,0,0
2005/3/1 8:30,0,0,0,0,0,0,0,0
2005/3/1 8:45,0,0,0,0,0,0,0,0
2005/3/1 9:00,0,0,0,0,0,0,0,0
2005/3/1 9:15,0,0,0,0,0,0,0,0
2005/3/1 9:30,0,0,0,0,0,0,0,0
2005/3/1 9:45,0,0,0,0,0,0,0,0
2005/3/1 10:00,0,0,0,0,0,0,0,0
2005/3/1 10:15,0,0,0,0,0,0,0,0
2005/3/1 10:30,0,0,0,0,0,0,0,0
2005/3/1 10:45,0,0,0,0,0,0,0,0
2005/3/1 11:00,0,0,0,0,0,0,0,0
2005/3/1 11:15,0,0,0,0,0,0,0,0
2005/3/1 11:30,0,0,0,0,0,0,0,0
2005/3/1 11:45,0,0,0,0,0,0,0,0
2005/3/1 12:00,0,0,0,0,0,0,0,0
2005/3/1 12:15,0,0,0,0,0,0,0,0
2005/3/1 12:30,0,0,0,0,0,0,0,0
2005/3/1 12:45,0,0,0,0,0,0,0,0
2005/3/1 13:00,0,0,0,0,0,0,0,0
2005/3/1 13:15,0,0,0,0,0,0,0,0
2005/3/1 13:30,0,0,0,0,0,0,0,0
2005/3/1 13:45,0,0,0,0,0,0,0,0
2005/3/1 14:00,0,0,0,0,0,0,0,0
2005/3/1 14:15,0,0,0,0,0,0,0,0
2005/3/1 14:30,0,0,0,0,0,0,0,0
2005/3/1 14:45,0,0,0,0,0,0,0,0
2005/3/1 15:00,0,0,0,0,0,0,0,0
2005/3/1 15:15,0,0,0,0,0,0,0,0
2005/3/1 15:30,0,0,0,0,0,0,0,0
2005/3/1 15:45,0,0,0,0,0,0,0,0
2005/3/1 16:00,0,0,0,0,0,0,0,0
2005/3/1 16:15,0,0,0,0,0,0,0,0
2005/3/1 16:30,0,0,0,0,0,0,0,0
2005/3/1 16:45,0,0,0,0,0,0,0,0
2005/3/1 17:00,0,0,0,0,0,0,0,0
2005/3/1 17:15,0,0,0,0,0,0,0,0
2005/3/1 17:30,0,0,0,0,0,0,0,0
2005/3/1 17:45,0,0,0,0,0,0,0,0
2005/3/1 18:00,0.090643,0,0,0,13.3063924,0,0,0
2005/3/1 18:15,0.115437,0,0,0,16.9461516,0,0,0
2005/3/1 18:30,0.112539,0,0,0,16.5207252,0,0,0
2005/3/1 18:45,0.113827,0,0,0,16.7098036,0,0,0
2005/3/1 19:00,0.109641,0,0,0,16.0952988,0,0,0
2005/3/1 19:15,0.110446,0,0,0,16.2134728,0,0,0
2005/3/1 19:30,0.110285,0,0,0,16.189838,0,0,0
2005/3/1 19:45,0.110768,0,0,0,16.2607424,0,0,0
2005/3/1 20:00,0.106904,0,0,0,15.6935072,0,0,0
2005/3/1 20:15,0.106421,0,0,0,15.6226028,0,0,0
2005/3/1 20:30,0.107548,0,0,0,15.7880464,0,0,0
2005/3/1 20:45,0.107548,0,0,0,15.7880464,0,0,0
2005/3/1 21:00,0.109963,0,0.109158,0,16.1425684,0,16.0243944,0
2005/3/1 21:15,0.108353,0,0.290444,0,15.9062204,0,42.6371792,0
2005/3/1 21:30,0.110607,0,0.040089,0,16.2371076,0,5.8850652,0
2005/3/1 21:45,0.111573,0,0,0,16.3789164,0,0,0
2005/3/1 22:00,0.110768,0,0,0,16.2607424,0,0,0
2005/3/1 22:15,0.110768,0,0,0,16.2607424,0,0,0
2005/3/1 22:30,0.106582,0,0.021735,0,15.6462376,0,3.190698,0
2005/3/1 22:45,0.112056,0,0.120911,0,16.4498208,0,17.7497348,0
2005/3/1 23:00,0.110929,0,0,0,16.2843772,0,0,0
2005/3/1 23:15,0.04508,0,0,0,6.617744,0,0,0
2005/3/1 23:30,0,0,0,0,0,0,0,0
2005/3/1 23:45,0,0,0,0,0,0,0,0
2005/3/2 0:00,0,0,0,0,0,0,0,0
2005/3/2 0:15,0,0,0,0,0,0,0,0
2005/3/2 0:30,0.080339,0,0,0,11.7937652,0,0,0
2005/3/2 0:45,0.094024,0,0,0,13.8027232,0,0,0
2005/3/2 1:00,0.1127,0,0,0,16.54436,0,0,0
2005/3/2 1:15,0.02898,0,0,0,4.254264,0,0,0
2005/3/2 1:30,0.005796,0,0.209461,0,0.8508528,0,30.7488748,0
2005/3/2 1:45,0,0,0,0,0,0,0,0
2005/3/2 2:00,0,0,0,0,0,0,0,0
2005/3/2 2:15,0,0,0,0,0,0,0,0
2005/3/2 2:30,0,0,0,0,0,0,0,0
2005/3/2 2:45,0,0,0,0,0,0,0,0
2005/3/2 3:00,0,0,0,0,0,0,0,0
2005/3/2 3:15,0,0,0,0,0,0,0,0
2005/3/2 3:30,0,0,0,0,0,0,0,0
2005/3/2 3:45,0,0,0,0,0,0,0,0
2005/3/2 4:00,0,0,0,0,0,0,0,0
2005/3/2 4:15,0,0,0,0,0,0,0,0
2005/3/2 4:30,0,0,0,0,0,0,0,0
2005/3/2 4:45,0,0,0,0,0,0,0,0
2005/3/2 5:00,0,0,0,0,0,0,0,0
2005/3/2 5:15,0,0,0,0,0,0,0,0
2005/3/2 5:30,0,0,0,0,0,0,0,0
2005/3/2 5:45,0,0,0,0,0,0,0,0
2005/3/2 6:00,0,0,0,0,0,0,0,0
2005/3/2 6:15,0,0,0,0,0,0,0,0
2005/3/2 6:30,0,0,0,0,0,0,0,0
2005/3/2 6:45,0.114471,0,0.150374,0,16.8043428,0,22.0749032,0
2005/3/2 7:00,0.11753,0,0.021896,0,17.253404,0,3.2143328,0
2005/3/2 7:15,0.116564,0,0.031717,0,17.1115952,0,4.6560556,0
2005/3/2 7:30,0.114471,0,0,0,16.8043428,0,0,0
2005/3/2 7:45,0.110285,0,0,0,16.189838,0,0,0
2005/3/2 8:00,0.056833,0,0.065688,0,8.3430844,0,9.6429984,0
2005/3/2 8:15,0,0,0,0,0,0,0,0
2005/3/2 8:30,0,0,0,0,0,0,0,0
2005/3/2 8:45,0,0,0,0,0,0,0,0
2005/3/2 9:00,0,0,0,0,0,0,0,0
2005/3/2 9:15,0,0,0,0,0,0,0,0
2005/3/2 9:30,0,0,0,0,0,0,0,0
2005/3/2 9:45,0,0,0,0,0,0,0,0
2005/3/2 10:00,0,0,0,0,0,0,0,0
2005/3/2 10:15,0,0,0,0,0,0,0,0
2005/3/2 10:30,0,0,0,0,0,0,0,0
2005/3/2 10:45,0,0,0,0,0,0,0,0
2005/3/2 11:00,0,0,0,0,0,0,0,0
2005/3/2 11:15,0,0,0,0,0,0,0,0
2005/3/2 11:30,0,0,0,0,0,0,0,0
2005/3/2 11:45,0,0,0,0,0,0,0,0
2005/3/2 12:00,0,0,0,0,0,0,0,0
2005/3/2 12:15,0,0,0,0,0,0,0,0
2005/3/2 12:30,0,0,0,0,0,0,0,0
2005/3/2 12:45,0,0,0,0,0,0,0,0
2005/3/2 13:00,0,0,0,0,0,0,0,0
2005/3/2 13:15,0,0,0,0,0,0,0,0
2005/3/2 13:30,0,0,0,0,0,0,0,0
2005/3/2 13:45,0,0,0,0,0,0,0,0
2005/3/2 14:00,0,0,0,0,0,0,0,0
2005/3/2 14:15,0,0,0,0,0,0,0,0
2005/3/2 14:30,0,0,0,0,0,0,0,0
2005/3/2 14:45,0,0,0,0,0,0,0,0
2005/3/2 15:00,0,0,0,0,0,0,0,0
2005/3/2 15:15,0,0,0,0,0,0,0,0
2005/3/2 15:30,0,0,0,0,0,0,0,0
2005/3/2 15:45,0,0,0,0,0,0,0,0
2005/3/2 16:00,0,0,0,0,0,0,0,0
2005/3/2 16:15,0,0,0,0,0,0,0,0
2005/3/2 16:30,0,0,0,0,0,0,0,0
2005/3/2 16:45,0,0,0,0,0,0,0,0
2005/3/2 17:00,0,0,0,0,0,0,0,0
2005/3/2 17:15,0,0,0,0,0,0,0,0
2005/3/2 17:30,0,0,0,0,0,0,0,0
2005/3/2 17:45,0,0,0,0,0,0,0,0
2005/3/2 18:00,0.081949,0,0,0,12.0301132,0,0,0
2005/3/2 18:15,0.11914,0,0,0,17.489752,0,0,0
2005/3/2 18:30,0.117208,0,0,0,17.2061344,0,0,0
2005/3/2 18:45,0.114149,0,0,0,16.7570732,0,0,0
2005/3/2 19:00,0.115598,0,0,0,16.9697864,0,0,0
2005/3/2 19:15,0.112378,0,0,0,16.4970904,0,0,0
2005/3/2 19:30,0.11109,0,0,0,16.308012,0,0,0
2005/3/2 19:45,0.111895,0,0,0,16.426186,0,0,0
2005/3/2 20:00,0.112056,0,0,0,16.4498208,0,0,0
2005/3/2 20:15,0.113344,0,0,0,16.6388992,0,0,0
2005/3/2 20:30,0.111412,0,0,0,16.3552816,0,0,0
2005/3/2 20:45,0.112217,0,0,0,16.4734556,0,0,0
2005/3/2 21:00,0.095473,0,0,0,14.0154364,0,0,0
2005/3/2 21:15,0.058121,0,0,0,8.5321628,0,0,0
2005/3/2 21:30,0.044758,0,0,0,6.5704744,0,0,0
2005/3/2 21:45,0.084686,0,0,0,12.4319048,0,0,0
2005/3/2 22:00,0.113344,0,0,0,16.6388992,0,0,0
2005/3/2 22:15,0.110929,0,0,0,16.2843772,0,0,0
2005/3/2 22:30,0.1127,0,0.113022,0,16.54436,0,16.5916296,0
2005/3/2 22:45,0.113666,0,0.53935,0,16.6861688,0,79.17658,0
2005/3/2 23:00,0.110768,0,0.214774,0,16.2607424,0,31.5288232,0
2005/3/2 23:15,0.109802,0,0,0,16.1189336,0,0,0
2005/3/2 23:30,0.111573,0,0,0,16.3789164,0,0,0
2005/3/2 23:45,0.111573,0,0.018998,0,16.3789164,0,2.7889064,0
2005/3/3 0:00,0.111412,0,0.108836,0,16.3552816,0,15.9771248,0
2005/3/3 0:15,0.029463,0,0,0,4.3251684,0,0,0
2005/3/3 0:30,0,0,0,0,0,0,0,0
2005/3/3 0:45,0,0,0,0,0,0,0,0
2005/3/3 1:00,0.001771,0,0.13524,0,0.2599828,0,19.853232,0
2005/3/3 1:15,0.000322,0,0.039928,0,0.0472696,0,5.8614304,0
2005/3/3 1:30,0,0,0,0,0,0,0,0
2005/3/3 1:45,0,0,0,0,0,0,0,0
2005/3/3 2:00,0,0,0,0,0,0,0,0
2005/3/3 2:15,0,0,0,0,0,0,0,0
2005/3/3 2:30,0,0,0,0,0,0,0,0
2005/3/3 2:45,0,0,0,0,0,0,0,0
2005/3/3 3:00,0,0,0,0,0,0,0,0
2005/3/3 3:15,0,0,0,0,0,0,0,0
2005/3/3 3:30,0,0,0,0,0,0,0,0
2005/3/3 3:45,0,0,0,0,0,0,0,0
2005/3/3 4:00,0,0,0,0,0,0,0,0
2005/3/3 4:15,0,0,0,0,0,0,0,0
2005/3/3 4:30,0,0,0,0,0,0,0,0
2005/3/3 4:45,0,0,0,0,0,0,0,0
2005/3/3 5:00,0,0,0,0,0,0,0,0
2005/3/3 5:15,0,0,0,0,0,0,0,0
2005/3/3 5:30,0,0,0,0,0,0,0,0
2005/3/3 5:45,0,0,0,0,0,0,0,0
2005/3/3 6:00,0.000322,0,0.087101,0,0.0472696,0,12.7864268,0
2005/3/3 6:15,0.137655,0,0.054096,0,20.207754,0,7.9412928,0
2005/3/3 6:30,0.115276,0,0,0,16.9225168,0,0,0
2005/3/3 6:45,0.118979,0,0,0,17.4661172,0,0,0
2005/3/3 7:00,0.114471,0,0,0,16.8043428,0,0,0
2005/3/3 7:15,0.117208,0,0,0,17.2061344,0,0,0
2005/3/3 7:30,0.113344,0,0,0,16.6388992,0,0,0
2005/3/3 7:45,0.118013,0,0,0,17.3243084,0,0,0
2005/3/3 8:00,0.054579,0,0.066493,0,8.0121972,0,9.7611724,0
2005/3/3 8:15,0,0,0,0,0,0,0,0
2005/3/3 8:30,0,0,0,0,0,0,0,0
2005/3/3 8:45,0,0,0,0,0,0,0,0
2005/3/3 9:00,0,0,0,0,0,0,0,0
2005/3/3 9:15,0,0,0,0,0,0,0,0
2005/3/3 9:30,0,0,0,0,0,0,0,0
2005/3/3 9:45,0,0,0,0,0,0,0,0
2005/3/3 10:00,0,0,0,0,0,0,0,0
2005/3/3 10:15,0,0,0,0,0,0,0,0
2005/3/3 10:30,0,0,0,0,0,0,0,0
2005/3/3 10:45,0,0,0,0,0,0,0,0
2005/3/3 11:00,0,0,0,0,0,0,0,0
2005/3/3 11:15,0,0,0,0,0,0,0,0
2005/3/3 11:30,0,0,0,0,0,0,0,0
2005/3/3 11:45,0,0,0,0,0,0,0,0
2005/3/3 12:00,0,0,0,0,0,0,0,0
2005/3/3 12:15,0,0,0,0,0,0,0,0
2005/3/3 12:30,0,0,0,0,0,0,0,0
2005/3/3 12:45,0,0,0,0,0,0,0,0
2005/3/3 13:00,0,0,0,0,0,0,0,0
2005/3/3 13:15,0,0,0,0,0,0,0,0
2005/3/3 13:30,0,0,0,0,0,0,0,0
2005/3/3 13:45,0,0,0,0,0,0,0,0
2005/3/3 14:00,0,0,0,0,0,0,0,0
2005/3/3 14:15,0,0,0,0,0,0,0,0
2005/3/3 14:30,0,0,0,0,0,0,0,0
2005/3/3 14:45,0,0,0,0,0,0,0,0
2005/3/3 15:00,0,0,0,0,0,0,0,0
2005/3/3 15:15,0,0,0,0,0,0,0,0
2005/3/3 15:30,0,0,0,0,0,0,0,0
2005/3/3 15:45,0,0,0,0,0,0,0,0
2005/3/3 16:00,0,0,0,0,0,0,0,0
2005/3/3 16:15,0,0,0,0,0,0,0,0
2005/3/3 16:30,0,0,0,0,0,0,0,0
2005/3/3 16:45,0,0,0,0,0,0,0,0
2005/3/3 17:00,0,0,0,0,0,0,0,0
2005/3/3 17:15,0,0,0,0,0,0,0,0
2005/3/3 17:30,0,0,0,0,0,0,0,0
2005/3/3 17:45,0,0,0,0,0,0,0,0
2005/3/3 18:00,0.066654,0,0,0,9.7848072,0,0,0
2005/3/3 18:15,0.126707,0,0,0,18.6005876,0,0,0
2005/3/3 18:30,0.115759,0,0,0,16.9934212,0,0,0
2005/3/3 18:45,0.115598,0,0,0,16.9697864,0,0,0
2005/3/3 19:00,0.116886,0,0,0,17.1588648,0,0,0
2005/3/3 19:15,0.113344,0,0,0,16.6388992,0,0,0
2005/3/3 19:30,0.109802,0,0,0,16.1189336,0,0,0
2005/3/3 19:45,0.110285,0,0,0,16.189838,0,0,0
2005/3/3 20:00,0.106904,0,0,0,15.6935072,0,0,0
2005/3/3 20:15,0.106904,0,0,0,15.6935072,0,0,0
2005/3/3 20:30,0.108353,0,0,0,15.9062204,0,0,0
2005/3/3 20:45,0.10948,0,0,0,16.071664,0,0,0
2005/3/3 21:00,0.108514,0,0,0,15.9298552,0,0,0
2005/3/3 21:15,0.108192,0,0,0,15.8825856,0,0,0
2005/3/3 21:30,0.109319,0,0,0,16.0480292,0,0,0
2005/3/3 21:45,0.109641,0,0,0,16.0952988,0,0,0
2005/3/3 22:00,0.109158,0,0,0,16.0243944,0,0,0
2005/3/3 22:15,0.109641,0,0,0,16.0952988,0,0,0
2005/3/3 22:30,0.107709,0,0,0,15.8116812,0,0,0
2005/3/3 22:45,0.108353,0,0,0,15.9062204,0,0,0
2005/3/3 23:00,0.075026,0,0,0,11.0138168,0,0,0
2005/3/3 23:15,0.109158,0,0,0,16.0243944,0,0,0
2005/3/3 23:30,0.107548,0,0,0,15.7880464,0,0,0
2005/3/3 23:45,0.107548,0,0,0,15.7880464,0,0,0
2005/3/4 0:00,0.082593,0,0,0,12.1246524,0,0,0
2005/3/4 0:15,0,0,0,0,0,0,0,0
2005/3/4 0:30,0,0,0,0,0,0,0,0
2005/3/4 0:45,0,0,0,0,0,0,0,0
2005/3/4 1:00,0,0,0,0,0,0,0,0
2005/3/4 1:15,0,0,0,0,0,0,0,0
2005/3/4 1:30,0,0,0,0,0,0,0,0
2005/3/4 1:45,0,0,0,0,0,0,0,0
2005/3/4 2:00,0,0,0,0,0,0,0,0
2005/3/4 2:15,0,0,0,0,0,0,0,0
2005/3/4 2:30,0,0,0,0,0,0,0,0
2005/3/4 2:45,0,0,0,0,0,0,0,0
2005/3/4 3:00,0,0,0,0,0,0,0,0
2005/3/4 3:15,0,0,0,0,0,0,0,0
2005/3/4 3:30,0,0,0,0,0,0,0,0
2005/3/4 3:45,0,0,0,0,0,0,0,0
2005/3/4 4:00,0,0,0,0,0,0,0,0
2005/3/4 4:15,0,0,0,0,0,0,0,0
2005/3/4 4:30,0,0,0,0,0,0,0,0
2005/3/4 4:45,0,0,0,0,0,0,0,0
2005/3/4 5:00,0,0,0,0,0,0,0,0
2005/3/4 5:15,0,0,0,0,0,0,0,0
2005/3/4 5:30,0,0,0,0,0,0,0,0
2005/3/4 5:45,0,0,0,0,0,0,0,0
2005/3/4 6:00,0,0,0,0,0,0,0,0
2005/3/4 6:15,0,0,0,0,0,0,0,0
2005/3/4 6:30,0,0,0,0,0,0,0,0
2005/3/4 6:45,0.109963,0,0,0,16.1425684,0,0,0
2005/3/4 7:00,0.112539,0,0,0,16.5207252,0,0,0
2005/3/4 7:15,0.112378,0,0,0,16.4970904,0,0,0
2005/3/4 7:30,0.115115,0,0,0,16.898882,0,0,0
2005/3/4 7:45,0.109802,0,0.196581,0,16.1189336,0,28.8580908,0
2005/3/4 8:00,0.107709,0,0,0,15.8116812,0,0,0
2005/3/4 8:15,0.102235,0,0,0,15.008098,0,0,0
2005/3/4 8:30,0.105294,0,0,0,15.4571592,0,0,0
2005/3/4 8:45,0.108675,0,0,0,15.95349,0,0,0
2005/3/4 9:00,0.109641,0,0.046529,0,16.0952988,0,6.8304572,0
2005/3/4 9:15,0.053774,0,0,0,7.8940232,0,0,0
2005/3/4 9:30,0,0,0,0,0,0,0,0
2005/3/4 9:45,0,0,0,0,0,0,0,0
2005/3/4 10:00,0,0,0,0,0,0,0,0
2005/3/4 10:15,0,0,0,0,0,0,0,0
2005/3/4 10:30,0,0,0,0,0,0,0,0
2005/3/4 10:45,0,0,0,0,0,0,0,0
2005/3/4 11:00,0,0,0,0,0,0,0,0
2005/3/4 11:15,0,0,0,0,0,0,0,0
2005/3/4 11:30,0,0,0,0,0,0,0,0
2005/3/4 11:45,0,0,0,0,0,0,0,0
2005/3/4 12:00,0,0,0,0,0,0,0,0
2005/3/4 12:15,0,0,0,0,0,0,0,0
2005/3/4 12:30,0,0,0,0,0,0,0,0
2005/3/4 12:45,0,0,0,0,0,0,0,0
2005/3/4 13:00,0,0,0,0,0,0,0,0
2005/3/4 13:15,0,0,0,0,0,0,0,0
2005/3/4 13:30,0,0,0,0,0,0,0,0
2005/3/4 13:45,0,0,0,0,0,0,0,0
2005/3/4 14:00,0,0,0,0,0,0,0,0
2005/3/4 14:15,0,0,0,0,0,0,0,0
2005/3/4 14:30,0,0,0,0,0,0,0,0
2005/3/4 14:45,0,0,0,0,0,0,0,0
2005/3/4 15:00,0,0,0,0,0,0,0,0
2005/3/4 15:15,0,0,0,0,0,0,0,0
2005/3/4 15:30,0,0,0,0,0,0,0,0
2005/3/4 15:45,0,0,0,0,0,0,0,0
2005/3/4 16:00,0,0,0,0,0,0,0,0
2005/3/4 16:15,0,0,0,0,0,0,0,0
2005/3/4 16:30,0,0,0,0,0,0,0,0
2005/3/4 16:45,0,0,0,0,0,0,0,0
2005/3/4 17:00,0,0,0,0,0,0,0,0
2005/3/4 17:15,0,0,0,0,0,0,0,0
2005/3/4 17:30,0,0,0,0,0,0,0,0
2005/3/4 17:45,0,0,0,0,0,0,0,0
2005/3/4 18:00,0,0,0,0,0,0,0,0
2005/3/4 18:15,0.125741,0,0,0,18.4587788,0,0,0
2005/3/4 18:30,0.117047,0,0,0,17.1824996,0,0,0
2005/3/4 18:45,0.115115,0,0,0,16.898882,0,0,0
2005/3/4 19:00,0.114793,0,0,0,16.8516124,0,0,0
2005/3/4 19:15,0.113505,0,0,0,16.662534,0,0,0
2005/3/4 19:30,0.112861,0,0,0,16.5679948,0,0,0
2005/3/4 19:45,0.114632,0,0,0,16.8279776,0,0,0
2005/3/4 20:00,0.112217,0,0,0,16.4734556,0,0,0
2005/3/4 20:15,0.112217,0,0,0,16.4734556,0,0,0
2005/3/4 20:30,0.112217,0,0,0,16.4734556,0,0,0
2005/3/4 20:45,0.113827,0,0,0,16.7098036,0,0,0
2005/3/4 21:00,0.110768,0,0,0,16.2607424,0,0,0
2005/3/4 21:15,0.111412,0,0,0,16.3552816,0,0,0
2005/3/4 21:30,0.112861,0,0,0,16.5679948,0,0,0
2005/3/4 21:45,0.111412,0,0,0,16.3552816,0,0,0
2005/3/4 22:00,0.110607,0,0,0,16.2371076,0,0,0
2005/3/4 22:15,0.110285,0,0,0,16.189838,0,0,0
2005/3/4 22:30,0.113827,0,0.311857,0,16.7098036,0,45.7806076,0
2005/3/4 22:45,0.104006,0,0.276115,0,15.2680808,0,40.533682,0
2005/3/4 23:00,0.099337,0,0.067137,0,14.5826716,0,9.8557116,0
2005/3/4 23:15,0.087745,0,0,0,12.880966,0,0,0
2005/3/4 23:30,0.097405,0,0.019159,0,14.299054,0,2.8125412,0
2005/3/4 23:45,0.109963,0,0,0,16.1425684,0,0,0
2005/3/5 0:00,0.108353,0,0.13524,0,15.9062204,0,19.853232,0
2005/3/5 0:15,0.108675,0,0.03059,0,15.95349,0,4.490612,0
2005/3/5 0:30,0.092253,0,0,0,13.5427404,0,0,0
2005/3/5 0:45,0.005313,0,0.160195,0,0.7799484,0,23.516626,0
2005/3/5 1:00,0.000161,0,0.02254,0,0.0236348,0,3.308872,0
2005/3/5 1:15,0,0,0,0,0,0,0,0
2005/3/5 1:30,0,0,0,0,0,0,0,0
2005/3/5 1:45,0,0,0,0,0,0,0,0
2005/3/5 2:00,0,0,0,0,0,0,0,0
2005/3/5 2:15,0,0,0,0,0,0,0,0
2005/3/5 2:30,0,0,0,0,0,0,0,0
2005/3/5 2:45,0,0,0,0,0,0,0,0
2005/3/5 3:00,0,0,0,0,0,0,0,0
2005/3/5 3:15,0,0,0,0,0,0,0,0
2005/3/5 3:30,0,0,0,0,0,0,0,0
2005/3/5 3:45,0,0,0,0,0,0,0,0
2005/3/5 4:00,0,0,0,0,0,0,0,0
2005/3/5 4:15,0,0,0,0,0,0,0,0
2005/3/5 4:30,0,0,0,0,0,0,0,0
2005/3/5 4:45,0,0,0,0,0,0,0,0
2005/3/5 5:00,0,0,0,0,0,0,0,0
2005/3/5 5:15,0,0,0,0,0,0,0,0
2005/3/5 5:30,0,0,0,0,0,0,0,0
2005/3/5 5:45,0,0,0,0,0,0,0,0
2005/3/5 6:00,0,0,0,0,0,0,0,0
2005/3/5 6:15,0,0,0,0,0,0,0,0
2005/3/5 6:30,0,0,0,0,0,0,0,0
2005/3/5 6:45,0,0,0,0,0,0,0,0
2005/3/5 7:00,0,0,0,0,0,0,0,0
2005/3/5 7:15,0.000161,0,0.183862,0,0.0236348,0,26.9909416,0
2005/3/5 7:30,0.135401,0,0,0,19.8768668,0,0,0
2005/3/5 7:45,0.117852,0,0.021091,0,17.3006736,0,3.0961588,0
2005/3/5 8:00,0.117369,0,0.043631,0,17.2297692,0,6.4050308,0
2005/3/5 8:15,0.116564,0,0,0,17.1115952,0,0,0
2005/3/5 8:30,0.115276,0,0,0,16.9225168,0,0,0
2005/3/5 8:45,0.11109,0,0,0,16.308012,0,0,0
2005/3/5 9:00,0.096117,0,0,0,14.1099756,0,0,0
2005/3/5 9:15,0.112217,0,0.104972,0,16.4734556,0,15.4098896,0
2005/3/5 9:30,0.104328,0,0.02093,0,15.3153504,0,3.072524,0
2005/3/5 9:45,0.1127,0,0,0,16.54436,0,0,0
2005/3/5 10:00,0.107709,0,0.019159,0,15.8116812,0,2.8125412,0
2005/3/5 10:15,0.109319,0,0,0,16.0480292,0,0,0
2005/3/5 10:30,0.052003,0,0,0,7.6340404,0,0,0
2005/3/5 10:45,0.005152,0,0,0,0.7563136,0,0,0
2005/3/5 11:00,0.010304,0,0,0,1.5126272,0,0,0
2005/3/5 11:15,0.085491,0,0,0,12.5500788,0,0,0
2005/3/5 11:30,0.046851,0,0,0,6.8777268,0,0,0
2005/3/5 11:45,0.082593,0,0,0,12.1246524,0,0,0
2005/3/5 12:00,0.106904,0,0,0,15.6935072,0,0,0
2005/3/5 12:15,0.051842,0,0,0,7.6104056,0,0,0
2005/3/5 12:30,0.010465,0,0,0,1.536262,0,0,0
2005/3/5 12:45,0.02415,0,0,0,3.54522,0,0,0
2005/3/5 13:00,0.112378,0,0,0,16.4970904,0,0,0
2005/3/5 13:15,0.082754,0,0,0,12.1482872,0,0,0
2005/3/5 13:30,0.005152,0,0,0,0.7563136,0,0,0
2005/3/5 13:45,0.018676,0,0,0,2.7416368,0,0,0
2005/3/5 14:00,0.016422,0,0,0,2.4107496,0,0,0
2005/3/5 14:15,0.005313,0,0,0,0.7799484,0,0,0
2005/3/5 14:30,0.01771,0,0,0,2.599828,0,0,0
2005/3/5 14:45,0.014329,0,0,0,2.1034972,0,0,0
2005/3/5 15:00,0.082432,0,0,0,12.1010176,0,0,0
2005/3/5 15:15,0.107065,0,0,0,15.717142,0,0,0
2005/3/5 15:30,0.027048,0,0,0,3.9706464,0,0,0
2005/3/5 15:45,0.010465,0,0,0,1.536262,0,0,0
2005/3/5 16:00,0.007889,0,0,0,1.1581052,0,0,0
2005/3/5 16:15,0.007889,0,0,0,1.1581052,0,0,0
2005/3/5 16:30,0.018515,0,0,0,2.718002,0,0,0
2005/3/5 16:45,0.00805,0,0,0,1.18174,0,0,0
2005/3/5 17:00,0.008372,0,0,0,1.2290096,0,0,0
2005/3/5 17:15,0.01127,0,0,0,1.654436,0,0,0
2005/3/5 17:30,0.010465,0,0,0,1.536262,0,0,0
2005/3/5 17:45,0.010626,0,0,0,1.5598968,0,0,0
2005/3/5 18:00,0.009338,0,0,0,1.3708184,0,0,0
2005/3/5 18:15,0.00644,0,0,0,0.945392,0,0,0
2005/3/5 18:30,0.010626,0,0,0,1.5598968,0,0,0
2005/3/5 18:45,0.010465,0,0,0,1.536262,0,0,0
2005/3/5 19:00,0.010626,0,0,0,1.5598968,0,0,0
2005/3/5 19:15,0.010465,0,0,0,1.536262,0,0,0
2005/3/5 19:30,0.038479,0,0,0,5.6487172,0,0,0
2005/3/5 19:45,0.116403,0,0,0,17.0879604,0,0,0
2005/3/5 20:00,0.110124,0,0,0,16.1662032,0,0,0
2005/3/5 20:15,0.108997,0,0,0,16.0007596,0,0,0
2005/3/5 20:30,0.045724,0,0,0,6.7122832,0,0,0
2005/3/5 20:45,0.055384,0,0,0,8.1303712,0,0,0
2005/3/5 21:00,0.108192,0,0,0,15.8825856,0,0,0
2005/3/5 21:15,0.107065,0,0,0,15.717142,0,0,0
2005/3/5 21:30,0.108192,0,0,0,15.8825856,0,0,0
2005/3/5 21:45,0.108353,0,0,0,15.9062204,0,0,0
2005/3/5 22:00,0.106582,0,0,0,15.6462376,0,0,0
2005/3/5 22:15,0.106421,0,0,0,15.6226028,0,0,0
2005/3/5 22:30,0.10626,0,0,0,15.598968,0,0,0
2005/3/5 22:45,0.105777,0,0,0,15.5280636,0,0,0
2005/3/5 23:00,0.102396,0,0,0,15.0317328,0,0,0
2005/3/5 23:15,0.102235,0,0.136045,0,15.008098,0,19.971406,0
2005/3/5 23:30,0.094346,0,0.554484,0,13.8499928,0,81.3982512,0
2005/3/5 23:45,0.104006,0,0.144417,0,15.2680808,0,21.2004156,0
2005/3/6 0:00,0.111412,0,0.166957,0,16.3552816,0,24.5092876,0
2005/3/6 0:15,0.10143,0,0.194005,0,14.889924,0,28.479934,0
2005/3/6 0:30,0.105133,0,0,0,15.4335244,0,0,0
2005/3/6 0:45,0.061663,0,0,0,9.0521284,0,0,0
2005/3/6 1:00,0.049266,0,0.13041,0,7.2322488,0,19.144188,0
2005/3/6 1:15,0.032844,0,0.056511,0,4.8214992,0,8.2958148,0
2005/3/6 1:30,0.057799,0,0,0,8.4848932,0,0,0
2005/3/6 1:45,0.033488,0,0,0,4.9160384,0,0,0
2005/3/6 2:00,0.038157,0,0,0,5.6014476,0,0,0
2005/3/6 2:15,0.027853,0,0.072611,0,4.0888204,0,10.6592948,0
2005/3/6 2:30,0.000322,0,0.085169,0,0.0472696,0,12.5028092,0
2005/3/6 2:45,0,0,0,0,0,0,0,0
2005/3/6 3:00,0,0,0,0,0,0,0,0
2005/3/6 3:15,0,0,0,0,0,0,0,0
2005/3/6 3:30,0,0,0,0,0,0,0,0
2005/3/6 3:45,0,0,0,0,0,0,0,0
2005/3/6 4:00,0,0,0,0,0,0,0,0
2005/3/6 4:15,0,0,0,0,0,0,0,0
2005/3/6 4:30,0,0,0,0,0,0,0,0
2005/3/6 4:45,0,0,0,0,0,0,0,0
2005/3/6 5:00,0,0,0,0,0,0,0,0
2005/3/6 5:15,0,0,0,0,0,0,0,0
2005/3/6 5:30,0,0,0,0,0,0,0,0
2005/3/6 5:45,0,0,0,0,0,0,0,0
2005/3/6 6:00,0,0,0,0,0,0,0,0
2005/3/6 6:15,0,0,0,0,0,0,0,0
2005/3/6 6:30,0,0,0,0,0,0,0,0
2005/3/6 6:45,0,0,0,0,0,0,0,0
2005/3/6 7:00,0,0,0,0,0,0,0,0
2005/3/6 7:15,0,0,0,0,0,0,0,0
2005/3/6 7:30,0,0,0,0,0,0,0,0
2005/3/6 7:45,0.137655,0,0,0,20.207754,0,0,0
2005/3/6 8:00,0.114149,0,0,0,16.7570732,0,0,0
2005/3/6 8:15,0.112217,0,0,0,16.4734556,0,0,0
2005/3/6 8:30,0.108836,0,0,0,15.9771248,0,0,0
2005/3/6 8:45,0.10948,0,0,0,16.071664,0,0,0
2005/3/6 9:00,0.10787,0,0,0,15.835316,0,0,0
2005/3/6 9:15,0.106582,0,0.107548,0,15.6462376,0,15.7880464,0
2005/3/6 9:30,0.103684,0,0,0,15.2208112,0,0,0
2005/3/6 9:45,0.100625,0,0,0,14.77175,0,0,0
2005/3/6 10:00,0.002898,0,0,0,0.4254264,0,0,0
2005/3/6 10:15,0,0,0,0,0,0,0,0
2005/3/6 10:30,0,0,0,0,0,0,0,0
2005/3/6 10:45,0,0,0,0,0,0,0,0
2005/3/6 11:00,0,0,0,0,0,0,0,0
2005/3/6 11:15,0,0,0,0,0,0,0,0
2005/3/6 11:30,0,0,0,0,0,0,0,0
2005/3/6 11:45,0,0,0,0,0,0,0,0
2005/3/6 12:00,0,0,0,0,0,0,0,0
2005/3/6 12:15,0,0,0,0,0,0,0,0
2005/3/6 12:30,0,0,0,0,0,0,0,0
2005/3/6 12:45,0,0,0,0,0,0,0,0
2005/3/6 13:00,0,0,0,0,0,0,0,0
2005/3/6 13:15,0,0,0,0,0,0,0,0
2005/3/6 13:30,0,0,0,0,0,0,0,0
2005/3/6 13:45,0,0,0,0,0,0,0,0
2005/3/6 14:00,0,0,0,0,0,0,0,0
2005/3/6 14:15,0,0,0,0,0,0,0,0
2005/3/6 14:30,0,0,0,0,0,0,0,0
2005/3/6 14:45,0,0,0,0,0,0,0,0
2005/3/6 15:00,0,0,0,0,0,0,0,0
2005/3/6 15:15,0,0,0,0,0,0,0,0
2005/3/6 15:30,0,0,0,0,0,0,0,0
2005/3/6 15:45,0,0,0,0,0,0,0,0
2005/3/6 16:00,0,0,0,0,0,0,0,0
2005/3/6 16:15,0,0,0,0,0,0,0,0
2005/3/6 16:30,0.074704,0,0,0,10.9665472,0,0,0
2005/3/6 16:45,0.110446,0,0,0,16.2134728,0,0,0
2005/3/6 17:00,0.107387,0,0,0,15.7644116,0,0,0
2005/3/6 17:15,0.054579,0,0,0,8.0121972,0,0,0
2005/3/6 17:30,0.010787,0,0,0,1.5835316,0,0,0
2005/3/6 17:45,0.011753,0,0,0,1.7253404,0,0,0
2005/3/6 18:00,0.032361,0,0,0,4.7505948,0,0,0
2005/3/6 18:15,0.010304,0,0,0,1.5126272,0,0,0
2005/3/6 18:30,0.067459,0,0,0,9.9029812,0,0,0
2005/3/6 18:45,0.01449,0,0,0,2.127132,0,0,0
2005/3/6 19:00,0.011109,0,0,0,1.6308012,0,0,0
2005/3/6 19:15,0.080822,0,0,0,11.8646696,0,0,0
2005/3/6 19:30,0.009982,0,0,0,1.4653576,0,0,0
2005/3/6 19:45,0.016583,0,0,0,2.4343844,0,0,0
2005/3/6 20:00,0.11592,0,0,0,17.017056,0,0,0
2005/3/6 20:15,0.107065,0,0,0,15.717142,0,0,0
2005/3/6 20:30,0.031878,0,0,0,4.6796904,0,0,0
2005/3/6 20:45,0.045241,0,0,0,6.6413788,0,0,0
2005/3/6 21:00,0.106582,0,0,0,15.6462376,0,0,0
2005/3/6 21:15,0.10626,0,0,0,15.598968,0,0,0
2005/3/6 21:30,0.105294,0,0,0,15.4571592,0,0,0
2005/3/6 21:45,0.086618,0,0,0,12.7155224,0,0,0
2005/3/6 22:00,0.007245,0,0,0,1.063566,0,0,0
2005/3/6 22:15,0.008533,0,0,0,1.2526444,0,0,0
2005/3/6 22:30,0.010465,0,0,0,1.536262,0,0,0
2005/3/6 22:45,0.046046,0,0,0,6.7595528,0,0,0
2005/3/6 23:00,0.110607,0,0.480102,0,16.2371076,0,70.4789736,0
2005/3/6 23:15,0.054418,0,0.380765,0,7.9885624,0,55.896302,0
2005/3/6 23:30,0.052647,0,0.128156,0,7.7285796,0,18.8133008,0
2005/3/6 23:45,0.077763,0,0.040894,0,11.4156084,0,6.0032392,0
2005/3/7 0:00,0,0,0,0,0,0,0,0
2005/3/7 0:15,0.005635,0,0.134113,0,0.827218,0,19.6877884,0
2005/3/7 0:30,0.000161,0,0.045885,0,0.0236348,0,6.735918,0
2005/3/7 0:45,0,0,0,0,0,0,0,0
2005/3/7 1:00,0,0,0,0,0,0,0,0
2005/3/7 1:15,0,0,0,0,0,0,0,0
2005/3/7 1:30,0,0,0,0,0,0,0,0
2005/3/7 1:45,0,0,0,0,0,0,0,0
2005/3/7 2:00,0,0,0,0,0,0,0,0
2005/3/7 2:15,0,0,0,0,0,0,0,0
2005/3/7 2:30,0,0,0,0,0,0,0,0
2005/3/7 2:45,0,0,0,0,0,0,0,0
2005/3/7 3:00,0,0,0,0,0,0,0,0
2005/3/7 3:15,0,0,0,0,0,0,0,0
2005/3/7 3:30,0,0,0,0,0,0,0,0
2005/3/7 3:45,0,0,0,0,0,0,0,0
2005/3/7 4:00,0,0,0,0,0,0,0,0
2005/3/7 4:15,0,0,0,0,0,0,0,0
2005/3/7 4:30,0,0,0,0,0,0,0,0
2005/3/7 4:45,0,0,0,0,0,0,0,0
2005/3/7 5:00,0,0,0,0,0,0,0,0
2005/3/7 5:15,0,0,0,0,0,0,0,0